When you browse on this site, cookies collect data to enhance your experience and personalize the content and advertising you see.
Visit our Privacy Policy to learn more. By continuing to use the site, you agree to this use of cookies and data.
  • In Deutschland
  • Länderverzeichnis
  • Für 7 Tage
  • Wassertemperatur
  • Wetterkarte
  • Widgets
  • user-avatar
    Anmelden

    Stündliche Wetter Anatolskaya

    Heute, 20 Januar, Montag

    Zeit Temperatur Niederschläge Wind Luftdruck Luftfeuchtigkeit
    00:00 -7°C° 0.2 mm 1 m/S 736 mmHg 96%
    01:00 -7°C° 0.2 mm 1 m/S 735 mmHg 96%
    02:00 -7°C° 0.2 mm 1 m/S 735 mmHg 96%
    03:00 -7°C° 0.2 mm 1 m/S 735 mmHg 96%
    04:00 -8°C° 0 mm 2 m/S 735 mmHg 96%
    05:00 -9°C° 0.3 mm 2 m/S 735 mmHg 95%
    06:00 -10°C° 0.3 mm 2 m/S 735 mmHg 95%
    07:00 -12°C° 0.3 mm 2 m/S 734 mmHg 95%
    08:00 -12°C° 0.3 mm 2 m/S 734 mmHg 94%
    09:00 -12°C° 0.3 mm 2 m/S 734 mmHg 94%
    10:00 -13°C° 0 mm 2 m/S 735 mmHg 94%
    11:00 -13°C° 0.2 mm 2 m/S 735 mmHg 93%
    12:00 -12°C° 0.2 mm 2 m/S 735 mmHg 92%
    13:00 -12°C° 0.2 mm 2 m/S 735 mmHg 92%
    14:00 -13°C° 0 mm 2 m/S 735 mmHg 93%
    15:00 -11°C° 0 mm 1 m/S 735 mmHg 94%
    16:00 -12°C° 0 mm 1 m/S 735 mmHg 96%
    17:00 -13°C° 0 mm 1 m/S 735 mmHg 96%
    18:00 -13°C° 0 mm 1 m/S 735 mmHg 97%
    19:00 -14°C° 0 mm 1 m/S 735 mmHg 97%
    20:00 -15°C° 0 mm 1 m/S 735 mmHg 97%
    21:00 -15°C° 0 mm 1 m/S 735 mmHg 98%
    22:00 -16°C° 0 mm 1 m/S 735 mmHg 98%
    23:00 -17°C° 0 mm 1 m/S 734 mmHg 98%

    Morgen, 21 Januar, Dienstag

    Zeit Temperatur Niederschläge Wind Luftdruck Luftfeuchtigkeit
    00:00 -17°C° 0 mm 1 m/S 734 mmHg 98%
    01:00 -18°C° 0 mm 1 m/S 734 mmHg 98%
    02:00 -18°C° 0 mm 1 m/S 734 mmHg 98%
    03:00 -18°C° 0 mm 1 m/S 734 mmHg 99%
    04:00 -19°C° 0 mm 1 m/S 733 mmHg 99%
    05:00 -19°C° 0 mm 1 m/S 733 mmHg 99%
    06:00 -19°C° 0 mm 1 m/S 733 mmHg 99%
    07:00 -19°C° 0 mm 1 m/S 732 mmHg 98%
    08:00 -18°C° 0 mm 1 m/S 732 mmHg 98%
    09:00 -17°C° 0 mm 1 m/S 732 mmHg 97%
    10:00 -18°C° 0 mm 2 m/S 732 mmHg 96%
    11:00 -16°C° 0 mm 2 m/S 731 mmHg 95%
    12:00 -15°C° 0 mm 2 m/S 731 mmHg 93%
    13:00 -13°C° 0 mm 2 m/S 730 mmHg 92%
    14:00 -13°C° 0 mm 2 m/S 730 mmHg 93%
    15:00 -14°C° 0 mm 2 m/S 729 mmHg 94%
    16:00 -14°C° 0 mm 2 m/S 729 mmHg 96%
    17:00 -14°C° 0 mm 2 m/S 728 mmHg 96%
    18:00 -14°C° 0 mm 2 m/S 727 mmHg 96%
    19:00 -14°C° 0 mm 3 m/S 726 mmHg 96%
    20:00 -13°C° 0 mm 3 m/S 726 mmHg 95%
    21:00 -13°C° 0 mm 3 m/S 725 mmHg 94%
    22:00 -12°C° 0 mm 3 m/S 724 mmHg 93%
    23:00 -11°C° 0 mm 4 m/S 723 mmHg 92%

    übermorgen, 22 Januar, Mittwoch

    Zeit Temperatur Niederschläge Wind Luftdruck Luftfeuchtigkeit
    00:00 -11°C° 0 mm 4 m/S 722 mmHg 91%
    01:00 -11°C° 0 mm 4 m/S 721 mmHg 90%
    02:00 -11°C° 0 mm 5 m/S 721 mmHg 89%
    03:00 -11°C° 0 mm 5 m/S 720 mmHg 88%
    04:00 -10°C° 0 mm 5 m/S 719 mmHg 87%
    05:00 -10°C° 0 mm 5 m/S 718 mmHg 87%
    06:00 -10°C° 0 mm 5 m/S 717 mmHg 88%
    07:00 -10°C° 0 mm 5 m/S 716 mmHg 88%
    08:00 -10°C° 0 mm 5 m/S 716 mmHg 87%
    09:00 -9°C° 0 mm 4 m/S 715 mmHg 87%
    10:00 -8°C° 0 mm 4 m/S 715 mmHg 87%
    11:00 -8°C° 0 mm 4 m/S 714 mmHg 87%
    12:00 -8°C° 0 mm 4 m/S 714 mmHg 87%
    13:00 -7°C° 0 mm 4 m/S 713 mmHg 87%
    14:00 -7°C° 0.1 mm 4 m/S 713 mmHg 89%
    15:00 -7°C° 0.1 mm 3 m/S 713 mmHg 90%
    16:00 -7°C° 0.1 mm 3 m/S 712 mmHg 91%
    17:00 -7°C° 0 mm 3 m/S 712 mmHg 92%
    18:00 -7°C° 0 mm 3 m/S 711 mmHg 92%
    19:00 -7°C° 0 mm 3 m/S 711 mmHg 93%
    20:00 -7°C° 0.1 mm 3 m/S 710 mmHg 94%
    21:00 -7°C° 0.1 mm 3 m/S 710 mmHg 94%
    22:00 -6°C° 0.1 mm 2 m/S 709 mmHg 95%
    23:00 -7°C° 0.4 mm 3 m/S 709 mmHg 95%

    23 Januar, Donnerstag

    Zeit Temperatur Niederschläge Wind Luftdruck Luftfeuchtigkeit
    00:00 -7°C° 0.4 mm 3 m/S 709 mmHg 95%
    01:00 -7°C° 0.4 mm 3 m/S 708 mmHg 95%
    02:00 -9°C° 0.1 mm 4 m/S 708 mmHg 91%
    03:00 -10°C° 0.1 mm 5 m/S 709 mmHg 88%
    04:00 -11°C° 0.1 mm 6 m/S 709 mmHg 85%
    05:00 -11°C° 0 mm 6 m/S 709 mmHg 85%
    06:00 -11°C° 0 mm 6 m/S 709 mmHg 85%
    07:00 -11°C° 0 mm 6 m/S 709 mmHg 86%
    08:00 -11°C° 0 mm 6 m/S 710 mmHg 85%
    09:00 -10°C° 0 mm 6 m/S 711 mmHg 85%
    10:00 -10°C° 0 mm 6 m/S 712 mmHg 84%
    11:00 -10°C° 0 mm 6 m/S 712 mmHg 84%
    12:00 -10°C° 0 mm 6 m/S 713 mmHg 83%
    13:00 -9°C° 0 mm 6 m/S 714 mmHg 82%
    14:00 -10°C° 0 mm 6 m/S 714 mmHg 83%
    15:00 -11°C° 0 mm 6 m/S 715 mmHg 84%
    16:00 -12°C° 0 mm 5 m/S 716 mmHg 86%
    17:00 -12°C° 0 mm 5 m/S 716 mmHg 87%
    18:00 -13°C° 0 mm 5 m/S 717 mmHg 87%
    19:00 -14°C° 0 mm 5 m/S 717 mmHg 88%
    20:00 -14°C° 0 mm 4 m/S 718 mmHg 88%
    21:00 -14°C° 0 mm 4 m/S 718 mmHg 89%
    22:00 -14°C° 0 mm 4 m/S 719 mmHg 89%
    23:00 -15°C° 0 mm 4 m/S 719 mmHg 90%

    24 Januar, Freitag

    Zeit Temperatur Niederschläge Wind Luftdruck Luftfeuchtigkeit
    00:00 -15°C° 0 mm 4 m/S 720 mmHg 90%
    01:00 -15°C° 0 mm 4 m/S 720 mmHg 90%
    02:00 -15°C° 0 mm 4 m/S 721 mmHg 90%
    03:00 -15°C° 0 mm 4 m/S 721 mmHg 89%
    04:00 -15°C° 0 mm 4 m/S 721 mmHg 89%
    05:00 -15°C° 0 mm 4 m/S 722 mmHg 89%
    06:00 -15°C° 0 mm 4 m/S 722 mmHg 89%
    07:00 -15°C° 0 mm 4 m/S 723 mmHg 89%
    08:00 -15°C° 0 mm 4 m/S 723 mmHg 89%
    09:00 -16°C° 0 mm 4 m/S 724 mmHg 88%
    10:00 -16°C° 0 mm 4 m/S 724 mmHg 88%
    11:00 -16°C° 0 mm 4 m/S 725 mmHg 87%
    12:00 -16°C° 0 mm 4 m/S 725 mmHg 87%
    13:00 -15°C° 0 mm 4 m/S 726 mmHg 86%
    14:00 -16°C° 0 mm 4 m/S 726 mmHg 87%
    15:00 -16°C° 0 mm 4 m/S 726 mmHg 88%
    16:00 -17°C° 0 mm 4 m/S 726 mmHg 89%
    17:00 -17°C° 0 mm 3 m/S 727 mmHg 90%
    18:00 -18°C° 0 mm 3 m/S 727 mmHg 91%
    19:00 -18°C° 0 mm 3 m/S 727 mmHg 92%
    20:00 -19°C° 0 mm 3 m/S 728 mmHg 92%
    21:00 -19°C° 0 mm 3 m/S 728 mmHg 92%
    22:00 -21°C° 0 mm 3 m/S 728 mmHg 93%
    23:00 -21°C° 0 mm 3 m/S 728 mmHg 93%

    25 Januar, Samstag

    Zeit Temperatur Niederschläge Wind Luftdruck Luftfeuchtigkeit
    00:00 -21°C° 0 mm 3 m/S 728 mmHg 93%
    01:00 -21°C° 0 mm 3 m/S 728 mmHg 93%
    02:00 -21°C° 0 mm 3 m/S 728 mmHg 93%
    03:00 -21°C° 0 mm 3 m/S 728 mmHg 93%
    04:00 -21°C° 0 mm 3 m/S 728 mmHg 92%
    05:00 -20°C° 0 mm 4 m/S 727 mmHg 91%
    06:00 -19°C° 0 mm 4 m/S 727 mmHg 89%
    07:00 -18°C° 0 mm 4 m/S 727 mmHg 88%
    08:00 -18°C° 0 mm 5 m/S 726 mmHg 87%
    09:00 -18°C° 0 mm 5 m/S 726 mmHg 86%
    10:00 -17°C° 0 mm 5 m/S 725 mmHg 85%
    11:00 -17°C° 0 mm 5 m/S 725 mmHg 85%
    12:00 -15°C° 0 mm 5 m/S 725 mmHg 85%
    13:00 -14°C° 0 mm 5 m/S 724 mmHg 85%
    14:00 -15°C° 0 mm 4 m/S 724 mmHg 86%
    15:00 -16°C° 0 mm 4 m/S 724 mmHg 87%
    16:00 -15°C° 0 mm 3 m/S 723 mmHg 88%
    17:00 -15°C° 0 mm 3 m/S 723 mmHg 88%
    18:00 -16°C° 0 mm 3 m/S 723 mmHg 89%
    19:00 -16°C° 0 mm 3 m/S 723 mmHg 90%
    20:00 -15°C° 0 mm 3 m/S 723 mmHg 90%
    21:00 -15°C° 0 mm 3 m/S 723 mmHg 90%
    22:00 -15°C° 0 mm 4 m/S 723 mmHg 90%
    23:00 -15°C° 0 mm 4 m/S 723 mmHg 90%
    Mehr zeigen